TimeHST,TemperatureF,Dew PointF,Humidity,Sea Level PressureIn,VisibilityMPH,Wind Direction,Wind SpeedMPH,Gust SpeedMPH,PrecipitationIn,Events,Conditions,WindDirDegrees,DateUTC
12:54 AM,75.0,68.0,79,30.06,10.0,NE,9.2,-,N/A,,Mostly Cloudy,50,2013-05-25 10:54:00
1:54 AM,75.9,69.1,79,30.05,10.0,NE,12.7,24.2,0.00,Rain,Light Rain,50,2013-05-25 11:54:00
2:54 AM,75.0,69.1,82,30.05,10.0,ENE,10.4,-,0.00,,Mostly Cloudy,60,2013-05-25 12:54:00
3:54 AM,73.9,70.0,87,30.04,10.0,NE,13.8,-,0.00,,Clear,40,2013-05-25 13:54:00
4:54 AM,73.9,69.1,85,30.05,10.0,NE,12.7,-,0.00,,Clear,50,2013-05-25 14:54:00
5:54 AM,73.9,68.0,82,30.06,10.0,NE,15.0,24.2,N/A,,Scattered Clouds,50,2013-05-25 15:54:00
6:54 AM,75.0,70.0,84,30.07,10.0,NE,15.0,-,0.00,,Scattered Clouds,40,2013-05-25 16:54:00
7:54 AM,75.9,71.1,85,30.09,6.0,ENE,8.1,-,0.01,Rain,Light Rain,60,2013-05-25 17:54:00
8:54 AM,80.1,69.1,69,30.08,10.0,ENE,15.0,23.0,0.00,,Scattered Clouds,70,2013-05-25 18:54:00
9:54 AM,84.0,70.0,63,30.07,10.0,NE,21.9,27.6,N/A,,Scattered Clouds,50,2013-05-25 19:54:00
10:54 AM,84.9,70.0,61,30.07,10.0,NE,19.6,26.5,N/A,,Scattered Clouds,50,2013-05-25 20:54:00
11:54 AM,87.1,68.0,53,30.05,10.0,NE,24.2,32.2,N/A,,Partly Cloudy,50,2013-05-25 21:54:00
12:54 PM,82.9,70.0,65,30.05,10.0,ENE,24.2,31.1,N/A,,Scattered Clouds,70,2013-05-25 22:54:00
1:54 PM,82.9,68.0,60,30.04,10.0,ENE,21.9,31.1,N/A,,Mostly Cloudy,60,2013-05-25 23:54:00
2:54 PM,82.0,70.0,67,30.04,10.0,ENE,18.4,33.4,0.00,,Scattered Clouds,60,2013-05-26 00:54:00
3:54 PM,79.0,70.0,74,30.04,10.0,ENE,19.6,26.5,N/A,,Mostly Cloudy,60,2013-05-26 01:54:00
4:54 PM,77.0,69.1,76,30.04,10.0,ENE,16.1,26.5,0.00,,Mostly Cloudy,70,2013-05-26 02:54:00
5:54 PM,77.0,70.0,79,30.04,10.0,ENE,15.0,23.0,N/A,,Mostly Cloudy,70,2013-05-26 03:54:00
6:54 PM,77.0,69.1,76,30.06,10.0,NE,16.1,21.9,N/A,,Overcast,50,2013-05-26 04:54:00
7:54 PM,75.9,70.0,82,30.09,10.0,NE,17.3,23.0,N/A,,Overcast,50,2013-05-26 05:54:00
8:54 PM,75.9,69.1,79,30.10,10.0,NE,15.0,20.7,0.00,,Scattered Clouds,50,2013-05-26 06:54:00
9:54 PM,77.0,69.1,76,30.12,10.0,NE,12.7,-,N/A,,Overcast,50,2013-05-26 07:54:00
10:54 PM,77.0,66.9,71,30.12,10.0,NE,16.1,-,N/A,,Mostly Cloudy,50,2013-05-26 08:54:00
11:54 PM,75.0,68.0,79,30.11,10.0,NE,13.8,18.4,N/A,,Clear,50,2013-05-26 09:54:00